Вернуться в каталог

STARLINK-36999

АктивенСвязьVLEO
NORAD 68268·PAYLOAD·🇺🇸 United States

Запущен Mar 19, 2026 с Vandenberg Space Force Base

Loading…

Ближайшие Пролёты (ближайшие 24 часа)

TLE

СвежийSource: CelesTrak SupGP

Эпоха: Sep 14, 2026, 21:40 UTC

1 68268C 26055G   26257.90326389 -.00017221  00000+0 -50888-3 0  2573
2 68268  53.1569 155.5996 0001490 103.0410  36.4565 15.34393481    15

Отслеживайте STARLINK-36999 в реальном времени с AllMySat

Download on the App Store